Location: Malvern Link
(52.1333°N, 2.3000°W)
Time: 20:10:36
(UTC+00:00)

QB50P2 - Pass Details

Date: 28 June 2022
Orbit: 590 x 605 km, 97.9° (Epoch: 11 August)

Event Time Altitude Azimuth Distance (km) Brightness Sun altitude
Rises 02:44:01 0° 6° (N) 2,858 ? -7.6°
Reaches altitude 10° 02:46:25 10° 355° (N) 1,953 ? -7.4°
Maximum altitude 02:50:02 28° 297° (WNW) 1,138 ? -7.1°
Drops below altitude 10° 02:53:39 10° 238° (WSW) 1,948 ? -6.8°
Enters shadow 02:54:14 - 234° (SW) 2,163 ? -6.7°
